Portada
METAR-TAF:

METAR-TAF

Aeropuertos :

Johnson County Executive Airport

Olathe, Kansas, Estados Unidos

latitud: 38-51-00N, longitud: 094-44-21W, altitud: 334 m

Observación

El informe se hizo hace 38 minutos, a las 07:53 UTC
Viento 5 kt del sur-sureste
Temperatura 23°C
Humedad 94%
Presión 1015 hPa
Visibilidad: 16.1 km
Cielo despejado

METAR: KOJC 060753Z AUTO 15005KT 10SM CLR 23/22 A2996 RMK AO2 SLP134 T02280222

Hora: 03:31 (08:31 UTC)


TAF: falta

Observaciones y pronósticos meteorológicos de más de 4000 aeropuertos (mensajes METAR y TAF).

Los puntos amarillos y rojos representan las estaciones disponibles.

Ponga el ratón en el punto deseado para ver el nombre de la estación.

Haga clic para ver las observaciones y los pronósticos meteorológicos.

Para cambiar el mapa : haga clic en los botones verdes con una cruz de color negro para hacer un zoom, en el botón verde con un guión para alejar o en las flechas verdes para mapas adyacentes.


METAR-TAF: